[[{"header":{"parameterUnit":"m.s-1","parameterCategory":1,"la1":30.2991,"la2":30.254,"lo1":-89.0895,"lo2":-89.0444,"dy":0.0017,"dx":0.0017,"nx":28,"ny":28,"refTime":"2025-12-22T03:00:00:Z","depth":0,"parameterNumber":2,"parameterNumberName":"U-component_of_WINDS"},"data":[0,0,0,0,0,0,0,0,0,0,0,0,0,0,0,0,0,0,0,0,0,0,0,0,0,0,0,0,0,0,0,0,0,0,0,0,0,0,0,0,0,0,0,0,0,0,0,0,0,0,0,0,0,0,0,0,0,0,-2.5803,-2.5803,0,-2.5839,-2.5839,-2.5839,-2.5781,-2.5779,-2.5777,-2.5776,-2.5815,-2.5818,-2.5821,0,0,0,0,0,0,0,0,0,0,0,0,0,-2.5687,-2.5689,-2.5803,-2.5803,-2.5803,-2.5838,-2.5839,-2.5839,-2.5782,-2.5779,-2.5777,-2.5775,-2.5814,-2.5817,-2.5821,0,0,0,0,0,0,0,0,0,0,0,0,0,-2.5731,-2.569,-2.5802,-2.5779,-2.5777,-2.5838,-2.5839,-2.584,-2.5782,-2.5779,-2.5776,-2.5773,-2.5813,-2.5817,-2.5821,-2.5908,0,0,-2.5835,-2.5837,0,0,0,0,0,0,0,0,-2.5729,-2.5736,-2.5782,-2.5781,-2.5779,-2.5802,-2.5812,-2.5863,-2.5783,-2.578,-2.5775,-2.5772,-2.5813,-2.5817,-2.5831,-2.591,-2.5912,-2.5835,-2.5838,-2.584,-2.5841,0,0,0,0,0,0,0,-2.5726,-2.5734,-2.5817,-2.5783,-2.5781,-2.5767,-2.577,-2.5822,-2.5813,-2.578,-2.5776,-2.5781,-2.5812,-2.5827,-2.5831,-2.5912,-2.5835,-2.5839,-2.5842,-2.5843,-2.6065,-2.6068,0,0,0,0,0,0,-2.5725,-2.5732,-2.5816,-2.5818,-2.5746,-2.5772,-2.5775,-2.5798,-2.5813,-2.5812,-2.5784,-2.5778,-2.5821,-2.5826,-2.5833,-2.5935,-2.584,-2.5844,-2.5846,-2.6062,-2.6066,-2.6069,0,0,0,0,0,0,-2.5723,-2.5733,-2.5814,-2.5774,-2.5783,-2.5777,-2.5803,-2.58,-2.5815,-2.5815,-2.5814,-2.58,-2.5819,-2.5826,-2.589,-2.5935,-2.5846,-2.585,-2.6058,-2.6063,-2.6068,-2.6141,0,0,0,0,0,0,-2.572,-2.5733,-2.5765,-2.5775,-2.5785,-2.587,-2.5806,-2.5803,-2.5822,-2.5816,-2.583,-2.583,-2.5817,-2.5884,-2.5894,-2.594,-2.5853,-2.6054,-2.606,-2.6066,-2.6134,-2.6147,-2.6159,0,0,0,0,0,-2.5716,-2.5785,-2.5767,-2.5777,-2.5825,-2.5873,-2.5879,-2.5862,-2.5826,-2.5859,-2.5859,-2.5829,-2.5929,-2.5891,-2.5902,-2.595,-2.6051,-2.6058,-2.6066,-2.6128,-2.6145,-2.6159,0,0,0,0,0,0,-2.5781,-2.5785,-2.5766,-2.5839,-2.5856,-2.5863,-2.5903,-2.588,-2.5908,-2.59,-2.5879,-2.5883,-2.5951,-2.5957,-2.5914,-2.6035,-2.5984,-2.5994,-2.6028,-2.6043,-2.6056,-2.6052,-2.5857,0,0,0,0,0,-2.5804,-2.5841,-2.5843,-2.5908,-2.5918,-2.591,-2.593,-2.5915,-2.5932,-2.5939,-2.5944,-2.5962,-2.5997,-2.6021,-2.6053,-2.6135,-2.6138,-2.6174,-2.6186,-2.6196,-2.6205,-2.6249,-2.6265,-2.6094,-2.6094,-2.6093,0,0,-2.5851,-2.5858,-2.5883,-2.5922,-2.5933,-2.5973,-2.5916,-2.596,-2.599,-2.5946,-2.6005,-2.601,-2.6029,-2.6102,-2.6134,-2.6109,-2.6253,-2.6206,-2.6214,-2.6217,-2.6258,-2.6274,-2.6288,-2.6099,-2.6098,-2.6097,0,0,-2.5958,-2.5967,-2.6022,-2.6035,-2.6052,-2.6046,-2.606,-2.6071,-2.6072,-2.6131,-2.6099,-2.6135,-2.6196,-2.6211,-2.6226,-2.634,-2.6314,-2.6352,-2.6416,-2.6459,-2.6472,-2.6484,-2.6524,-2.6539,-2.6361,-2.6361,-2.6361,0,-2.6015,-2.6073,-2.6054,-2.61,-2.6118,-2.608,-2.6136,-2.6149,-2.6177,-2.6191,-2.6162,-2.6239,-2.6249,-2.6324,-2.6352,-2.6366,-2.6381,-2.6349,-2.6472,-2.6483,-2.6494,-2.6532,-2.6548,-2.6365,-2.6365,-2.6364,-2.6364,0,-2.6142,-2.6183,-2.6225,-2.6252,-2.6275,-2.6327,-2.6316,-2.6342,-2.6326,-2.6324,-2.6385,-2.6396,-2.643,-2.6448,-2.6433,-2.6522,-2.6505,-2.6475,-2.6423,-2.6515,-2.6551,-2.6565,-2.6372,-2.637,-2.6369,-2.6368,0,0,-2.6289,-2.6305,-2.6321,-2.6333,-2.635,-2.6382,-2.6432,-2.6465,-2.6487,-2.6509,-2.655,-2.6603,-2.6575,-2.6593,-2.658,-2.6618,-2.6707,-2.6583,-2.6583,-2.6605,-2.6805,-2.6828,-2.6845,-2.669,-2.6693,-2.6695,-2.6804,0,-2.6395,-2.648,-2.6464,-2.6548,-2.6585,-2.655,-2.6594,-2.661,-2.661,-2.6643,-2.6643,-2.668,-2.6641,-2.6651,-2.6687,-2.6689,-2.6747,-2.6681,-2.6729,-2.6731,-2.6724,-2.6863,-2.6887,-2.6988,-2.6817,-2.682,-2.6821,0,-2.6529,-2.6554,-2.6641,-2.6652,-2.6667,-2.6707,-2.6736,-2.6768,-2.6786,-2.6783,-2.6803,-2.6783,-2.6834,-2.6783,-2.6853,-2.6809,-2.6828,-2.6832,-2.6836,-2.6838,-2.6781,-2.6869,-2.702,-2.7035,-2.6843,-2.6841,-2.684,0,-2.6626,-2.6682,-2.6741,-2.6753,-2.6768,-2.6796,-2.6804,-2.6819,-2.684,-2.6866,-2.6879,-2.6912,-2.6929,-2.6955,-2.6945,-2.6909,-2.7017,-2.6965,-2.7016,-2.7017,-2.7039,-2.7038,-2.7195,-2.7054,-2.7054,-2.7054,-2.7053,0,-2.6745,-2.6799,-2.6785,-2.6821,-2.6882,-2.6864,-2.6925,-2.6929,-2.6942,-2.6979,-2.6952,-2.6988,-2.6973,-2.7008,-2.7,-2.7059,-2.7068,-2.7067,-2.7065,-2.7069,-2.7069,-2.708,-2.7073,-2.7058,-2.7057,-2.7056,-2.7055,0,-2.6863,-2.6856,-2.6918,-2.6927,-2.6931,-2.6975,-2.6984,-2.7018,-2.7016,-2.7064,-2.7074,-2.7071,-2.7111,-2.7104,-2.7148,-2.7143,-2.7217,-2.7206,-2.721,-2.7207,-2.7259,-2.7254,-2.7427,-2.7449,-2.7296,-2.7297,-2.7298,0,-2.6938,-2.6979,-2.6993,-2.7016,-2.7026,-2.7062,-2.7083,-2.7069,-2.7092,-2.7116,-2.7148,-2.7185,-2.7214,-2.728,-2.7282,-2.7316,-2.7305,-2.7364,-2.731,-2.7313,-2.7305,-2.7302,-2.7306,-2.7374,-2.7376,-2.7377,-2.7378,0,-2.7073,-2.7068,-2.7098,-2.7129,-2.7155,-2.7178,-2.7199,-2.7219,-2.7207,-2.7234,-2.7274,-2.7297,-2.7342,-2.7379,-2.7411,-2.742,-2.7398,-2.7396,-2.7409,-2.7413,-2.7414,-2.7414,-2.7238,-2.7391,-2.739,-2.7389,-2.7388,-2.7388,-2.7171,-2.7206,-2.7221,-2.7257,-2.7271,-2.7291,-2.7324,-2.7326,-2.7359,-2.7394,-2.7384,-2.743,-2.7448,-2.7488,-2.7501,-2.7537,-2.7515,-2.7535,-2.754,-2.7544,-2.755,-2.7409,-2.7543,-2.7542,-2.7542,-2.7542,-2.7541,0,-2.7304,-2.7312,-2.7345,-2.7375,-2.7403,-2.7379,-2.7401,-2.7427,-2.7467,-2.7485,-2.7514,-2.7561,-2.7597,-2.7603,-2.7638,-2.7666,-2.7656,-2.7675,-2.7672,-2.7675,-2.7568,-2.7552,-2.7682,-2.7682,-2.7682,-2.7682,-2.7682,-2.7682,-2.7376,-2.7433,-2.743,-2.7494,-2.7502,-2.7546,-2.7561,-2.758,-2.7594,-2.7647,-2.7677,-2.768,-2.7694,-2.773,-2.7762,-2.7763,-2.7777,-2.78,-2.7797,-2.7697,-2.7682,-2.7669,-2.7654,-2.7804,-2.7804,-2.7901,-2.7902,-2.7902]},{"header":{"parameterUnit":"m.s-1","parameterCategory":1,"la1":30.2991,"la2":30.254,"lo1":-89.0895,"lo2":-89.0444,"dy":0.0017,"dx":0.0017,"nx":28,"ny":28,"refTime":"2025-12-22T03:00:00:Z","depth":0,"parameterNumber":3,"parameterNumberName":"V-component_of_WINDS"},"data":[0,0,0,0,0,0,0,0,0,0,0,0,0,0,0,0,0,0,0,0,0,0,0,0,0,0,0,0,0,0,0,0,0,0,0,0,0,0,0,0,0,0,0,0,0,0,0,0,0,0,0,0,0,0,0,0,0,0,0.2648,0.2648,0,0.2688,0.2688,0.2689,0.2753,0.2754,0.2756,0.2757,0.2796,0.2796,0.2795,0,0,0,0,0,0,0,0,0,0,0,0,0,0.2625,0.2625,0.2648,0.2648,0.2649,0.2688,0.2688,0.2689,0.2753,0.2754,0.2756,0.2757,0.2796,0.2796,0.2795,0,0,0,0,0,0,0,0,0,0,0,0,0,0.2647,0.2625,0.2647,0.2685,0.2689,0.2688,0.2688,0.2689,0.2753,0.2754,0.2756,0.2758,0.2796,0.2796,0.2795,0.276,0,0,0.2795,0.2795,0,0,0,0,0,0,0,0,0.2645,0.2647,0.2679,0.2683,0.2687,0.2717,0.2695,0.2713,0.2752,0.2728,0.2757,0.2759,0.2768,0.277,0.2774,0.2761,0.2763,0.2795,0.2795,0.2795,0.2795,0,0,0,0,0,0,0,0.2644,0.2646,0.2663,0.268,0.2684,0.27,0.2705,0.2698,0.2738,0.2731,0.2735,0.2739,0.277,0.2774,0.2775,0.2764,0.2795,0.2795,0.2795,0.2795,0.2724,0.2723,0,0,0,0,0,0,0.2637,0.2644,0.2662,0.2665,0.267,0.2699,0.2704,0.2706,0.2738,0.2745,0.2738,0.2742,0.2773,0.2775,0.2777,0.2737,0.2795,0.2795,0.2795,0.2726,0.2724,0.2722,0,0,0,0,0,0,0.2636,0.2638,0.2661,0.2656,0.266,0.2697,0.2698,0.2706,0.2709,0.2744,0.2751,0.2734,0.2775,0.2777,0.2764,0.274,0.2795,0.2795,0.2728,0.2726,0.2723,0.2658,0,0,0,0,0,0,0.2635,0.2637,0.2624,0.2655,0.266,0.2647,0.2697,0.2705,0.2709,0.2715,0.2742,0.2748,0.2776,0.2764,0.2764,0.2741,0.2795,0.2731,0.2727,0.2724,0.2662,0.2653,0.2645,0,0,0,0,0,0.2634,0.2603,0.2623,0.2625,0.2645,0.2645,0.2648,0.2682,0.2707,0.2694,0.2716,0.2747,0.2742,0.2762,0.2762,0.2739,0.2732,0.2728,0.2724,0.2666,0.2655,0.2645,0,0,0,0,0,0,0.2568,0.2608,0.263,0.2609,0.2623,0.2656,0.2641,0.2669,0.2676,0.2681,0.2722,0.2727,0.2709,0.2723,0.2743,0.2706,0.2742,0.2738,0.2698,0.2687,0.2679,0.2676,0.2795,0,0,0,0,0,0.2551,0.2549,0.2584,0.2562,0.2568,0.2603,0.2605,0.2629,0.2646,0.2652,0.2673,0.2687,0.2689,0.2689,0.2692,0.2665,0.2671,0.2649,0.264,0.2633,0.2629,0.2616,0.2606,0.2709,0.2709,0.2709,0,0,0.2515,0.2537,0.2533,0.2549,0.2563,0.256,0.2608,0.2602,0.26,0.2651,0.264,0.2656,0.2674,0.2653,0.2645,0.2664,0.2602,0.2628,0.2622,0.2622,0.2611,0.2601,0.2592,0.2706,0.2706,0.2707,0,0,0.2449,0.2466,0.2449,0.2463,0.2484,0.2507,0.2503,0.2532,0.2545,0.2535,0.2574,0.2571,0.2573,0.2585,0.2591,0.253,0.2559,0.253,0.2486,0.2472,0.2464,0.2457,0.2436,0.2427,0.2526,0.2526,0.2525,0,0.2402,0.2399,0.2437,0.2429,0.2435,0.2482,0.2466,0.2476,0.2497,0.25,0.2521,0.2525,0.2541,0.2524,0.2509,0.2512,0.2509,0.2527,0.2462,0.2456,0.245,0.243,0.2421,0.2522,0.2522,0.2523,0.2523,0,0.2341,0.2338,0.2322,0.2342,0.2346,0.2334,0.2369,0.2368,0.2393,0.2414,0.2403,0.2424,0.2433,0.2431,0.2454,0.2417,0.2428,0.2455,0.2492,0.2436,0.2418,0.241,0.2517,0.2518,0.2519,0.252,0,0,0.2233,0.2275,0.2268,0.2278,0.2305,0.2304,0.2293,0.2303,0.2302,0.2314,0.2307,0.2308,0.2334,0.234,0.2366,0.2354,0.2305,0.2383,0.2384,0.2367,0.2265,0.2244,0.2235,0.2324,0.2323,0.2322,0.2263,0,0.2173,0.2158,0.2192,0.2169,0.2167,0.2213,0.2204,0.2219,0.2239,0.224,0.2261,0.2262,0.2295,0.23,0.229,0.2312,0.2284,0.2317,0.2317,0.2316,0.2311,0.2225,0.2203,0.2147,0.2257,0.2255,0.2255,0,0.21,0.211,0.2087,0.2116,0.2116,0.2108,0.212,0.212,0.2138,0.2154,0.2162,0.2192,0.2184,0.2219,0.2209,0.223,0.2232,0.2243,0.2242,0.2242,0.2282,0.2223,0.213,0.2121,0.2244,0.2244,0.2245,0,0.2024,0.2031,0.2019,0.2026,0.206,0.2053,0.2066,0.2086,0.209,0.21,0.2103,0.2111,0.2116,0.2121,0.2153,0.2176,0.2138,0.2177,0.215,0.2149,0.214,0.214,0.2045,0.2141,0.2141,0.2141,0.2142,0,0.1952,0.1936,0.1986,0.1978,0.1961,0.2,0.1983,0.2001,0.2019,0.2015,0.2054,0.205,0.2092,0.2092,0.2116,0.2103,0.2105,0.2117,0.2124,0.2113,0.2112,0.2115,0.2119,0.2139,0.214,0.214,0.2141,0,0.1864,0.1897,0.1886,0.1919,0.1927,0.1913,0.1942,0.1935,0.1958,0.1953,0.1954,0.1989,0.1991,0.2024,0.2032,0.2049,0.2026,0.204,0.202,0.2024,0.1996,0.1998,0.19,0.1889,0.1992,0.1991,0.199,0,0.1816,0.1806,0.1838,0.1839,0.185,0.1851,0.1855,0.1893,0.1896,0.1917,0.1908,0.1914,0.192,0.1921,0.1947,0.1954,0.1968,0.1933,0.197,0.196,0.1968,0.1968,0.1967,0.1925,0.1924,0.1923,0.1922,0,0.1728,0.1745,0.175,0.1761,0.1765,0.1775,0.1787,0.1785,0.1827,0.1828,0.1831,0.1836,0.1846,0.1851,0.1863,0.1876,0.1906,0.1911,0.1905,0.1894,0.1883,0.1889,0.1999,0.1913,0.1914,0.1914,0.1915,0.1915,0.1659,0.1652,0.1673,0.1678,0.1691,0.1702,0.1698,0.1721,0.1724,0.1736,0.1758,0.1757,0.1777,0.1796,0.1807,0.1807,0.1825,0.1816,0.1814,0.1811,0.1806,0.1883,0.1809,0.1809,0.181,0.181,0.181,0,0.1573,0.1589,0.1593,0.1609,0.1613,0.1642,0.1657,0.1658,0.1657,0.1673,0.1679,0.1682,0.1687,0.1714,0.1722,0.1717,0.1731,0.1718,0.1718,0.1721,0.1789,0.1793,0.1707,0.1707,0.1707,0.1707,0.1707,0.1707,0.1528,0.1517,0.1537,0.1533,0.1549,0.155,0.1556,0.1566,0.1579,0.1582,0.1586,0.1604,0.1624,0.1634,0.164,0.1648,0.1649,0.1631,0.1643,0.1706,0.1716,0.1726,0.173,0.1631,0.1631,0.1575,0.1575,0.1574]}]]